sat.trackr.live / text

‹ back to catalog

O3B MPOWER F10

NORAD 64867 · 2025-153B

PAYLOAD ACTIVE UNKNOWN

§ Identity

Operator
Country
O3B
Launch date
2025-07-22
Launch site
AFETR
Launch vehicle
Mass (kg)
RCS (m²)

Purposes: comms

External: N2YO · Heavens-Above · Gunter

§ Orbital elements

Epoch: 2026-09-19T21:21:45.717408Z

Period
287.93 min
Inclination
0.0626°
Eccentricity
0.0004583
Mean motion
5.00114884 rev/d
Perigee alt
8,059.3 km
Apogee alt
8,072.5 km
Semi-major
14,444.0 km
B*
0.0000e+0
RAAN
354.9318°
Arg perigee
273.6683°
Mean anomaly
91.3497°
Rev number
2,677

§ Raw data

O3B MPOWER F101 64867U 25153B   26262.89011247 -.00000027  00000+0  00000+0 0  99952 64867   0.0626 354.9318 0004583 273.6683  91.3497  5.00114884 26771

JSON: /api/v1/satellites/64867 · /tle

For live sub-satellite position, see the globe view (requires WebGL).

§ Visibility from observer

Set your observer location to see the next 7 days of passes ≥ 10°. The values pass through the URL so the page stays shareable.

No JS? Fill the form by hand. The geolocation button needs JavaScript.